Regional Weather Roundup
Issued by NWS Charleston, SC

Current Version | Previous Version | Graphics & Text | Print | Product List | Glossary On
Versions: 1 2 3 4 5 6 7 8 9 10 11 12 13 14 15 16 17 18 19 20 21 22 23 24 25 26 27 28 29 30 31 32 33 34 35 36 37 38 39 40 41 42 43 44 45 46 47 48 49 50
000 ASUS42 KCHS 260928 RWRCHS REGIONAL WEATHER ROUNDUP NATIONAL WEATHER SERVICE CHARLESTON SC 500 AM EDT THU MAY 26 2016 NOTE: "FAIR" INDICATES FEW OR NO CLOUDS BELOW 12,000 FEET WITH NO SIGNIFICANT WEATHER AND/OR OBSTRUCTIONS TO VISIBILITY. NOT ALL STATIONS ARE QUALITY CONTROLLED. USE DATA WITH CAUTION... ESPECIALLY DEWPOINT OBSERVATIONS. SCZ027-030-031-034>040-042>050-261000- ...SOUTHEAST SOUTH CAROLINA... CITY SKY/WX TMP DP RH WIND PRES REMARKS N CHARLESTON CLEAR 69 66 90 CALM 30.18R WATERFRONT PRK N/A 73 70 90 VRB2 30.16S MOUNT PLEASANT FAIR 66 64 94 CALM 30.19S JOHNS ISLAND FAIR 68 68 100 CALM 30.19R PINOPOLIS N/A 73 68 83 CALM 30.10S MONCKS CORNER FAIR 63 59 88 CALM 30.18S FOG SUMMERVILLE PTSUNNY 64 64 100 CALM 30.19S BEAUFORT MCAS CLEAR 69 66 90 CALM 30.18R BEAUFORT ARPT FAIR 70 68 94 CALM 30.18R HILTON HEAD IS CLEAR 72 68 88 VRB5 30.19R WALTERBORO SUNNY 64 64 100 CALM 30.19R ALLENDALE FAIR 66 64 94 CALM 30.17S ...SOUTHERN MIDLANDS AND PEE DEE... CITY SKY/WX TMP DP RH WIND PRES REMARKS GEORGETOWN FOG 61 61 100 CALM 30.19S VSB 1 KINGSTREE PTSUNNY 63 59 88 CALM 30.18S ORANGEBURG CLEAR 64 62 93 CALM 30.18S BARNWELL FAIR 66 66 100 CALM 30.19R AIKEN FAIR 66 59 77 S7 30.21S MANNING FAIR 70 66 88 SW5 30.18S COLUMBIA CLEAR 68 60 75 CALM 30.16S SUMTER CLEAR 68 64 88 SW7 30.16R FLORENCE NOT AVBL MYRTLE BEACH PTCLDY 72 63 73 SW5 30.20F N MYRTLE BEACH PTCLDY 72 69 90 S6 30.18S $$ GAZ063-065-086>088-099>101-113>116-118-119-134>141-150-261000- ...SOUTHEAST GEORGIA... CITY SKY/WX TMP DP RH WIND PRES REMARKS SAVANNAH ARPT CLEAR 68 65 90 CALM 30.17F HUNTER AAF CLEAR 68 68 100 E3 30.15S FORT STEWART CLEAR 64 62 93 CALM 30.14F STATESBORO PTCLDY 65 65 98 CALM 30.18R SYLVANIA MOSUNNY 68 65 90 CALM 30.19R CLAXTON FAIR 63 63 99 CALM 30.18R ...CSRA...CENTRAL AND FAR SOUTHEAST GEORGIA... CITY SKY/WX TMP DP RH WIND PRES REMARKS THOMSON CLEAR 69 63 81 CALM 30.21S AUGUSTA-BUSH PTCLDY 62 60 93 CALM 30.17R AUGUSTA-DANIEL CLEAR 71 60 68 S7 30.18R SWAINSBORO FAIR 66 63 88 CALM 30.18S VIDALIA CLEAR 66 63 88 CALM 30.18R EASTMAN CLOUDY 64 64 100 CALM 30.20R HAZLEHURST FAIR 69 64 83 CALM 30.16S ALMA PTCLDY 64 62 93 CALM 30.16F WAYCROSS CLEAR 63 62 99 CALM 30.17S JESUP FAIR 59 59 100 W3 30.18R BAXLEY FAIR 64 64 100 CALM 30.17S BRUNSWICK FOG 66 64 94 CALM 30.17F VSB 1/2 SAINT SIMONS CLEAR 74 66 76 SE6 30.16F $$ SCZ027-028-034-036>038-045-046-048>050-GAZ119-141-261000- ...LAKE AND SUPPLEMENTAL COASTAL OBSERVATIONS... STATION/POSITION TIME TEMP WIND PRES WAVE SWELL AIR SEA DIR/SP/G HT/PER HT/PER/DIR (UTC) (F) (DEG/KT/KT) (MB) (FT/S) (FT/S/D) WINYAH BAY 0800 72 230/ 2 1021.0 LAKE MURRAY 0800 74 220/ 9/ 13 1020.7S ACE BASIN NERRS 0800 70 CALM 1022.0S FORT PULASKI 0900 73 76 160/ 2/ 3 1022.2R SAPELO ISLAND 0900 71 150/ 3 1021.0F $$ ANZ835-935-AMZ111-154-330-350-352-354-370-450-454-472-261000- ...C-MAN AND BUOY OBSERVATIONS... STATION/POSITION TIME TEMP WIND PRES WAVE SWELL AIR SEA DIR/SP/G HT/PER HT/PER/DIR (UTC) (F) (DEG/KT/KT) (MB) (FT/S) (FT/S/D) BUOY 41004 0850 76 76 160/ 8/ 8 1021.9F 2/ 8 2/ 8 BUOY 41008 0850 76 76 140/ 10/ 12 1021.7R 2/ 9 2/ 90/ 9 FOLLY BEACH CMAN 0900 75 190/ 9/ 10 1022.3R CAPERS NEARSHORE 0908 75 75 200/ 10/ 14 1022.0S FRIPP NEARSHORE 0908 76 77 180/ 10/ 14 1021.4R STATION/POSITION TIME TEMP WIND PRES WAVE SWELL AIR SEA DIR/SP/G HT/PER HT/PER/DIR (UTC) (F) (DEG/KT/KT) (MB) (FT/S) (FT/S/D) 5E ST. MARYS GA 0821 78 N/A 2/ 9 FRYING PAN BUOY 0900 76 76 200/ 8/ 10 1022.3R BUOY 41025 0850 72 69 220/ 6/ 8 1022.7F 2/ 8 2/120/ 8 CAPE LOOKOUT NC 0900 71 200/ 6/ 6 1022.1R BUOY 41002 0850 74 78 70/ 10/ 12 1022.8F 2/ 9 2/ 80/ 9 BUOY 41010 0820 75 77 70/ 12/ 14 1020.5F ST AUGUSTINE FL 0900 76 79 110/ 8/ 9 1022.2S $$

USA.gov is the U.S. government's official web portal to all federal, state and local government web resources and services.